Regional Weather Roundup
Issued by NWS

Home | Current Version | Previous Version | Graphics & Text | Print | Product List | Glossary On
Versions: 1 2 3 4 5 6 7 8 9 10 11 12 13 14 15 16 17 18 19 20 21 22 23 24 25 26 27
000
ASUS45 KBOI 280810
RWRID

IDAHO REGIONAL WEATHER ROUNDUP
NATIONAL WEATHER SERVICE BOISE ID
200 AM MDT SUN MAY 28 2017

NOTE: "FAIR" INDICATES FEW OR NO CLOUDS BELOW 12000 FEET
WITH NO SIGNIFICANT WEATHER AND/OR OBSTRUCTIONS TO VISIBILITY

IDZ012-014-280900-
SOUTHWEST IDAHO


CITY           SKY/WX    TMP DP  RH WIND       PRES   REMARKS
BOISE          CLEAR     58  41  53 SE9       30.16S
CALDWELL       CLEAR     53  42  66 NE6       30.15S
MOUNTAIN HOME  CLEAR     52  43  69 E6        30.17S
$$

IDZ016-017-280900-
SOUTHCENTRAL IDAHO


CITY           SKY/WX    TMP DP  RH WIND       PRES   REMARKS
BURLEY         CLEAR     46  39  76 CALM      30.23R
JEROME         CLEAR     53  40  61 E8        30.22S
TWIN FALLS     CLEAR     50  41  71 S12       30.22S
$$

IDZ019>023-280900-
SOUTHEAST IDAHO


CITY           SKY/WX    TMP DP  RH WIND       PRES   REMARKS
IDAHO FALLS    CLEAR     45  42  89 CALM      30.28R
POCATELLO      CLEAR     42  40  92 N6        30.26S
REXBURG        CLEAR     44  41  89 NE3       30.28S
$$

IDZ006-010-011-018-031-032-280900-
CENTRAL IDAHO MOUNTAINS


CITY           SKY/WX    TMP DP  RH WIND       PRES   REMARKS
MCCALL         CLEAR     45  37  73 CALM      30.25R
HAILEY         CLEAR     46  41  81 NW8       30.31S
STANLEY          N/A     34  30  85 S3        30.35R
SALMON         CLEAR     46  37  71 CALM      30.23R
CHALLIS        CLEAR     46  35  65 SW5       30.27R
$$

IDZ002-004-006-007-026-280900-
NORTHERN IDAHO


CITY           SKY/WX    TMP DP  RH WIND       PRES   REMARKS
LEWISTON       CLEAR     61  46  57 CALM      30.11S
LOWELL           N/A     52  47  83 N3        30.19R
COEUR D`ALENE  CLEAR     58  49  72 SE5       30.15S
MULLAN PASS    CLEAR     53  36  52 NW7       30.29S
$$




USA.gov is the U.S. government's official web portal to all federal, state and local government web resources and services.